Kinston, NC

8:22 PM EDT on May 22, 2017 (GMT -0400)
Kinston Regional Jetport / Stallings Field

Weather History for KISO - October, 2013

Change the Weather History Date:

Friday, October 25, 2013

  Actual Average Record
Temperature  
Mean Temperature 45 °F -  
Max Temperature 57 °F 70 °F 83 °F (1984)
Min Temperature 33 °F 48 °F 30 °F (1978)
Degree Days  
Heating Degree Days 20    
Moisture  
Dew Point 36 °F    
Average Humidity 74    
Maximum Humidity 96    
Minimum Humidity 31    
Precipitation  
Precipitation 0.00 in - - ()
Sea Level Pressure  
Sea Level Pressure 30.27 in    
Wind  
Wind Speed 3 mph (North)    
Max Wind Speed 12 mph    
Max Gust Speed 16 mph    
Visibility 10 miles    
Events Rain    
Averages and records for this station are not official NWS values.
T = Trace of Precipitation, MM = Missing Value Source: NWS Daily Summary

Daily Weather History Graph

Daily Weather History Graph

Search for Another Location

Airport or City:

Trip Planner

Search our weather history database for the weather conditions in past years. The results will help you decide how hot, cold, wet, or windy it might be!

Date:

Astronomy

Oct. 25, 2013 Rise Set
Actual Time 7:25 AM EDT 6:22 PM EDT
Civil Twilight 6:59 AM EDT 6:48 PM EDT
Nautical Twilight 6:29 AM EDT 7:18 PM EDT
Astronomical Twilight 6:00 AM EDT 7:48 PM EDT
Moon 11:43 PM EDT (10/25) 1:01 PM EDT (10/25)
Length of Visible Light 11h 49m
Length of Day
10h 57m
Waning Gibbous, 62% of the Moon is Illuminated
Oct 25
Waning Gibbous
Oct 26
Last Quarter
Nov 3
New
Nov 10
First Quarter
Nov 17
Full

Hourly Weather History & Observations

Time (EDT) Temp. Windchill Dew Point Humidity Pressure Visibility Wind Dir Wind Speed Gust Speed Precip Events Conditions
12:15 AM 43.3 °F - 41.9 °F 95% 30.19 in 10.0 mi Calm Calm - N/A   Scattered Clouds
12:35 AM 44.1 °F - 41.9 °F 92% 30.20 in 10.0 mi Calm Calm - N/A   Scattered Clouds
12:55 AM 44.6 °F - 42.3 °F 91% 30.20 in 10.0 mi Calm Calm - N/A   Mostly Cloudy
1:15 AM 44.8 °F - 42.6 °F 92% 30.19 in 10.0 mi Calm Calm - N/A   Mostly Cloudy
1:35 AM 45.1 °F - 42.4 °F 90% 30.19 in 10.0 mi Calm Calm - N/A   Mostly Cloudy
1:55 AM 45.9 °F - 41.5 °F 85% 30.19 in 10.0 mi Calm Calm - N/A   Mostly Cloudy
2:15 AM 46.4 °F 45.2 °F 41.0 °F 81% 30.20 in 10.0 mi NNW 3.5 mph - N/A   Mostly Cloudy
2:35 AM 46.2 °F 44.1 °F 41.4 °F 83% 30.20 in 10.0 mi North 4.6 mph - N/A   Overcast
2:55 AM 46.4 °F 44.3 °F 39.6 °F 77% 30.20 in 10.0 mi North 4.6 mph - N/A   Overcast
3:15 AM 46.4 °F - 39.7 °F 78% 30.20 in 10.0 mi Calm Calm - N/A   Overcast
3:35 AM 46.6 °F - 38.8 °F 74% 30.21 in 10.0 mi Calm Calm - N/A   Overcast
3:55 AM 46.6 °F - 38.3 °F 73% 30.21 in 10.0 mi North 5.8 mph - N/A   Mostly Cloudy
4:15 AM 46.4 °F 44.3 °F 38.3 °F 73% 30.21 in 10.0 mi North 4.6 mph - N/A   Overcast
4:35 AM 46.0 °F 44.8 °F 38.3 °F 74% 30.22 in 10.0 mi NNW 3.5 mph - N/A   Overcast
4:55 AM 46.0 °F 43.1 °F 37.6 °F 72% 30.22 in 10.0 mi NNW 5.8 mph - N/A   Overcast
5:15 AM 45.9 °F 42.3 °F 37.4 °F 72% 30.23 in 10.0 mi NNW 6.9 mph - N/A   Overcast
5:35 AM 45.9 °F 42.3 °F 36.0 °F 68% 30.24 in 10.0 mi North 6.9 mph - N/A   Light Drizzle
5:55 AM 45.7 °F 41.5 °F 35.8 °F 68% 30.25 in 10.0 mi North 8.1 mph - N/A Rain Light Rain
6:15 AM 45.5 °F 41.8 °F 36.1 °F 70% 30.25 in 10.0 mi North 6.9 mph - N/A   Overcast
6:35 AM 44.1 °F 39.5 °F 37.6 °F 78% 30.25 in 10.0 mi North 8.1 mph - N/A Rain Rain
6:55 AM 43.9 °F 42.3 °F 37.6 °F 78% 30.26 in 10.0 mi North 3.5 mph - N/A Rain Light Rain
6:56 AM 44.6 °F 43.1 °F 37.4 °F 76% 30.26 in 10.0 mi North 3.5 mph - N/A   Mostly Cloudy
7:56 AM 42.8 °F 41.1 °F 39.2 °F 87% 30.27 in 10.0 mi North 3.5 mph - N/A   Mostly Cloudy
8:56 AM 44.6 °F 41.4 °F 37.4 °F 76% 30.30 in 10.0 mi North 5.8 mph - N/A   Scattered Clouds
9:56 AM 46.4 °F 42.4 °F 33.8 °F 62% 30.31 in 10.0 mi North 8.1 mph - N/A   Scattered Clouds
10:56 AM 51.8 °F - 30.2 °F 44% 30.31 in 10.0 mi North 9.2 mph - N/A   Partly Cloudy
11:56 AM 53.6 °F - 28.4 °F 38% 30.31 in 10.0 mi NNW 5.8 mph - N/A   Clear
12:56 PM 55.4 °F - 30.2 °F 38% 30.30 in 10.0 mi North 10.4 mph - N/A   Clear
1:56 PM 57.2 °F - 26.6 °F 31% 30.29 in 10.0 mi North 9.2 mph - N/A   Clear
2:56 PM 57.2 °F - 26.6 °F 31% 30.28 in 10.0 mi NW 5.8 mph - N/A   Clear
3:56 PM 57.2 °F - 26.6 °F 31% 30.28 in 10.0 mi NNW 11.5 mph 16.1 mph N/A   Clear
4:56 PM 55.4 °F - 26.6 °F 33% 30.28 in 10.0 mi NW 9.2 mph - N/A   Clear
5:56 PM 53.6 °F - 28.4 °F 38% 30.30 in 10.0 mi NNW 4.6 mph - N/A   Clear
6:56 PM 44.6 °F - 35.6 °F 71% 30.31 in 10.0 mi Calm Calm - N/A   Clear
7:56 PM 41.0 °F - 35.6 °F 81% 30.33 in 10.0 mi Calm Calm - N/A   Clear
8:56 PM 37.4 °F - 35.6 °F 93% 30.34 in 10.0 mi Calm Calm - N/A   Clear
9:15 PM 37.2 °F - 34.7 °F 91% 30.34 in 10.0 mi Calm Calm - N/A   Clear
9:35 PM 36.7 °F - 34.2 °F 91% 30.35 in 10.0 mi Calm Calm - N/A   Clear
9:55 PM 35.1 °F - 33.3 °F 93% 30.35 in 10.0 mi Calm Calm - N/A   Clear
10:15 PM 35.6 °F - 34.0 °F 94% 30.35 in 10.0 mi Calm Calm - N/A   Clear
10:35 PM 34.7 °F - 33.1 °F 94% 30.36 in 10.0 mi Calm Calm - N/A   Clear
10:55 PM 34.0 °F - 32.5 °F 94% 30.36 in 10.0 mi Calm Calm - N/A   Clear
11:15 PM 34.5 °F - 33.1 °F 94% 30.36 in 10.0 mi Calm Calm - N/A   Clear
11:35 PM 33.8 °F - 32.2 °F 94% 30.36 in 10.0 mi Calm Calm - N/A   Clear
11:55 PM 33.1 °F - 32.0 °F 96% 30.36 in 7.0 mi Calm Calm - N/A   Clear